Location: Newark
(55.7681°N, 37.7103°E)
Time: 03:40:38
(UTC+00:00)

CUBESAT XI-V - Visible Passes

Search period start: 07 December 2019 00:00
Search period end: 17 December 2019 00:00
Orbit: 669 x 693 km, 98.0° (Epoch: 06 December)

Date Brightness Start Highest point End Pass type
(mag) Time Alt. Az. Time Alt. Az. Time Alt. Az.
07 Dec ? 14:15:17 10° N 14:19:10 27° WNW 14:23:00 10° WSW visible
08 Dec ? 14:52:06 10° NNW 14:54:55 16° NW 14:57:44 10° W visible
09 Dec ? 13:50:01 10° N 13:54:20 39° WNW 13:58:36 10° SW visible
10 Dec ? 14:26:37 10° N 14:30:13 23° NW 14:33:48 10° WSW visible
11 Dec ? 15:03:36 10° NNW 15:05:55 14° NW 15:08:14 10° WNW visible
12 Dec ? 14:01:18 10° N 14:05:25 33° WNW 14:09:31 10° SW visible
13 Dec ? 14:37:58 10° N 14:41:14 19° NW 14:44:30 10° W visible
14 Dec ? 13:36:05 10° N 13:40:33 49° WNW 13:44:58 10° SW visible
14 Dec ? 15:15:16 10° NNW 15:16:55 12° NW 15:18:33 10° WNW visible
15 Dec ? 14:12:35 10° N 14:16:29 28° WNW 14:20:21 10° WSW visible
16 Dec ? 14:49:23 10° NNW 14:52:16 17° NW 14:55:08 10° W visible
